Wind_Speed
6 6 6 5 4 4 5 5 5 4 4 3 2 2 3 3 3 3 3 3 3 3 4 4 3 4 4 4 4 5 5 5 5 6 6 5 5 4 4 4 3 3 4
6 6 6 6 5 5 5 6 6 5 4 4 3 3 3 4 4 4 4 3 3 3 3 3 4 5 6 6 6 6 6 6 5 5 6 6 6 5 5 4 3 4 4
7 7 7 6 6 6 6 6 6 5 4 4 3 3 3 4 4 4 4 4 4 4 4 4 5 6 7 7 6 6 6 7 6 6 6 5 6 5 4 4 4 5 5
7 7 7 7 7 7 7 6 6 5 5 5 4 4 4 4 4 4 4 4 4 4 4 4 5 5 5 6 6 6 6 7 6 6 6 6 6 5 4 4 5 5 5
7 8 7 7 8 8 7 7 6 6 6 5 5 5 5 5 5 5 5 5 4 4 4 4 3 2 4 5 6 6 6 7 7 7 6 6 6 5 4 5 5 5 5
7 8 7 8 8 8 8 7 7 7 6 6 6 6 6 6 6 5 5 5 4 4 4 3 2 2 3 5 5 6 6 7 7 6 5 5 6 6 5 5 5 6 6
7 7 8 8 8 8 8 8 8 7 7 7 7 7 7 7 6 6 6 6 5 4 4 3 3 3 4 5 6 6 6 6 6 6 5 5 6 6 6 5 6 7 7
7 8 9 9 8 8 8 8 8 8 8 8 8 8 8 7 7 7 7 7 6 5 4 3 3 3 4 5 6 6 6 7 7 6 6 6 6 7 7 7 6 7 7
8 9 9 9 9 9 9 9 9 8 9 9 9 9 8 8 8 8 8 8 7 6 4 4 4 4 5 6 7 7 8 7 8 7 7 7 7 7 7 8 8 7 8
10 10 10 10 9 10 9 9 10 10 9 10 10 10 9 9 9 9 9 9 7 6 5 4 4 4 5 6 7 8 8 8 9 9 8 8 8 8 7 7 8 8 10
10 11 11 11 10 10 10 10 11 10 10 10 10 10 10 9 9 9 9 7 5 5 5 5 5 5 5 6 7 7 8 9 10 9 9 9 9 9 8 8 8 9 10
10 11 11 12 12 11 11 11 11 10 10 10 11 11 11 10 9 9 8 7 5 5 5 5 5 5 5 6 6 6 7 9 9 9 9 9 9 9 9 9 9 9 9
11 11 12 12 12 12 12 11 11 11 11 11 11 11 11 10 9 9 8 6 6 5 6 6 6 6 6 6 6 6 7 8 9 10 9 9 10 10 9 9 8 9 9
11 12 13 13 13 12 12 12 11 11 11 11 12 11 11 10 9 9 8 7 6 6 6 6 6 7 7 6 6 7 7 8 8 9 9 9 9 10 10 9 9 10 10
12 13 13 13 12 12 12 12 12 12 12 11 11 11 11 10 9 9 9 8 7 6 6 6 6 6 7 7 7 7 8 8 8 9 9 9 9 9 10 11 11 11 11
13 13 13 12 12 13 13 13 13 12 12 12 11 11 11 10 10 10 10 9 8 7 6 6 6 6 6 6 6 6 7 7 8 8 9 9 9 10 10 10 11 11 12
13 13 13 12 13 13 13 13 13 13 12 11 11 11 11 11 11 11 10 9 8 8 7 7 7 6 6 6 6 6 7 7 7 8 8 8 9 9 9 10 10 11 12
13 13 13 13 13 13 13 12 12 13 13 12 12 12 11 11 11 11 10 10 9 8 7 7 7 7 7 7 7 7 7 8 8 8 8 9 9 9 10 10 10 11 12
13 14 13 13 13 13 13 13 14 14 14 13 12 12 12 12 11 10 10 9 9 9 9 9 8 8 8 7 8 8 8 9 9 8 9 9 10 10 9 10 10 10 10
13 13 13 12 12 13 14 14 14 14 13 13 13 13 12 12 11 11 10 9 9 10 10 9 9 8 8 7 8 8 8 9 8 8 8 9 9 9 10 10 10 11 11
13 13 13 13 13 13 14 14 15 14 14 14 14 13 13 13 12 11 11 10 10 10 10 9 8 8 8 8 8 8 8 9 9 9 9 9 9 9 10 10 11 11 10
12 13 13 13 13 14 14 15 15 15 14 14 14 14 14 14 13 12 12 12 11 11 11 10 9 9 9 9 9 9 9 10 9 10 9 9 9 9 10 10 11 11 11
13 13 13 14 14 14 15 16 15 15 15 15 15 15 15 14 13 13 13 13 13 13 12 11 11 10 10 10 10 10 9 10 10 10 10 10 10 10 10 11 11 11 11
14 14 14 15 15 15 16 16 15 15 16 15 15 15 15 14 14 13 14 14 13 13 12 11 11 11 11 11 11 11 10 10 11 11 11 11 11 10 11 11 11 11 12
15 15 15 16 16 16 17 16 16 16 16 16 16 15 15 14 14 14 14 15 14 13 12 12 11 12 11 12 12 11 11 11 11 11 11 11 11 11 12 12 12 12 12
16 15 16 17 17 17 17 17 17 17 17 17 17 16 15 15 14 14 14 14 13 12 12 12 12 12 12 12 12 12 12 12 12 12 12 12 12 12 12 12 13 13 13
Wind_Direction
4 1 358 354 351 353 352 352 351 338 331 322 311 311 322 331 332 329 322 318 300 283 273 254 244 243 243 234 229 227 214 208 211 202 202 195 193 197 203 210 206 203 203
354 351 353 352 346 342 342 343 343 335 327 319 304 308 317 322 324 326 319 305 297 286 279 264 260 250 242 235 228 221 210 202 207 205 202 203 204 210 211 214 212 211 215
348 348 350 349 343 340 341 340 341 339 333 327 316 326 331 330 330 324 316 308 306 299 289 276 271 261 248 234 222 214 211 204 210 210 206 215 219 218 219 226 221 218 224
346 345 347 350 347 345 343 338 338 338 338 337 331 330 330 331 332 326 319 310 306 302 300 295 286 273 240 222 218 214 213 217 220 222 224 226 225 227 228 235 227 230 240
346 345 349 348 346 344 341 338 334 335 333 334 334 330 326 327 326 324 323 319 312 304 298 293 286 257 206 210 215 214 215 222 225 228 230 231 232 234 233 237 239 238 242
346 347 348 349 348 347 344 343 341 338 332 330 330 328 325 324 323 320 319 320 315 308 299 295 275 239 203 211 219 218 217 217 224 226 228 229 234 243 241 237 246 249 251
348 346 347 349 349 348 346 344 343 342 337 331 326 326 324 322 324 325 324 327 321 309 295 291 266 232 223 223 224 220 219 220 228 226 232 234 236 237 241 244 255 255 252
346 345 345 349 347 347 345 344 344 343 339 336 329 325 324 326 329 325 321 320 316 312 298 280 268 240 234 233 230 229 230 232 236 226 233 237 241 240 242 248 254 259 253
340 344 346 347 345 344 344 344 342 340 337 335 332 328 326 328 328 325 318 314 305 301 297 283 271 252 242 239 237 243 238 242 236 236 237 244 246 245 250 249 248 258 255
336 340 343 343 343 343 340 340 340 339 336 334 332 328 327 329 327 326 320 307 294 289 288 278 269 259 245 238 242 245 245 240 242 242 242 245 249 250 251 253 252 260 259
334 336 337 336 338 337 336 337 338 339 336 334 332 328 325 326 328 331 329 318 295 284 284 274 267 261 252 245 246 249 248 245 244 243 244 247 245 247 250 259 263 266 265
335 335 338 336 337 337 335 337 337 339 339 335 334 331 330 327 329 331 333 329 308 295 288 278 271 259 253 252 252 253 251 246 246 246 248 246 244 248 255 259 263 269 273
333 334 337 336 336 335 333 335 336 339 340 338 336 335 332 329 330 331 332 329 315 299 291 284 278 268 260 255 252 257 258 253 253 250 250 249 247 250 258 261 262 267 272
328 331 333 335 335 334 333 335 333 335 337 337 337 336 333 329 328 326 328 322 315 303 295 288 279 276 269 261 261 261 261 258 252 250 253 253 253 255 258 263 266 268 271
322 325 329 332 334 331 330 331 331 331 334 334 335 334 334 332 331 330 330 326 318 307 299 293 285 277 270 268 268 263 264 262 263 259 255 259 259 259 261 261 265 267 268
314 320 325 329 334 333 329 329 330 329 329 329 328 329 335 335 333 332 334 329 325 317 305 295 289 279 271 265 262 259 259 261 263 266 264 266 263 263 266 268 266 268 268
311 316 321 323 326 329 329 328 328 327 328 328 329 330 333 335 332 331 330 328 326 324 313 298 290 282 270 261 259 257 260 266 268 266 266 266 267 267 270 273 271 269 271
307 311 315 319 321 325 329 328 329 329 331 330 330 331 330 333 332 331 331 329 324 320 313 305 296 284 273 264 263 263 265 268 271 272 270 269 271 273 275 278 280 278 275
306 308 310 314 318 322 327 326 328 330 331 329 330 331 332 331 329 330 331 325 322 320 315 310 302 290 280 272 268 269 268 269 272 275 274 271 271 276 281 284 286 285 282
300 304 308 311 313 319 324 322 322 327 329 327 326 326 328 328 325 326 326 324 322 321 317 309 303 292 284 282 277 273 272 272 277 283 285 279 277 280 284 289 290 288 289
294 300 306 308 310 314 318 320 318 320 323 326 326 323 323 321 320 320 321 318 319 318 315 306 301 292 285 285 280 276 274 279 279 280 283 280 275 277 282 287 287 287 287
290 294 300 306 310 312 314 316 317 315 316 320 321 320 318 316 315 316 317 316 314 313 311 304 298 295 290 284 277 275 271 277 277 278 280 278 276 278 282 285 286 286 285
292 292 297 305 308 311 313 315 317 318 315 315 314 315 314 313 312 313 314 313 312 308 307 302 295 291 290 286 285 282 275 279 279 277 277 279 279 279 283 286 287 290 289
289 291 296 301 305 308 310 313 314 316 316 315 313 312 313 310 309 309 312 312 311 307 305 301 294 290 287 284 282 282 279 280 282 278 278 279 280 282 285 286 288 289 288
284 286 291 296 301 304 306 309 311 311 311 311 312 312 312 311 308 308 309 309 308 308 306 303 298 292 290 286 282 280 277 279 280 280 281 279 278 279 282 286 288 290 291
281 283 286 291 296 298 302 305 308 310 309 310 310 311 310 309 307 306 306 305 305 307 306 304 298 294 291 288 283 280 278 280 280 277 280 281 280 281 283 285 288 290 293
Height
5891 5890 5889 5888 5887 5886 5886 5885 5884 5882 5881 5881 5880 5879 5879 5878 5878 5877 5877 5876 5876 5875 5875 5874 5874 5875 5876 5876 5877 5878 5879 5880 5880 5881 5882 5883 5884 5885 5886 5887 5888 5889 5889
5891 5890 5889 5888 5887 5887 5886 5885 5884 5883 5882 5881 5880 5880 5879 5878 5878 5877 5877 5876 5875 5875 5874 5874 5874 5874 5875 5876 5876 5877 5878 5879 5880 5881 5882 5883 5884 5885 5886 5887 5888 5889 5889
5892 5891 5890 5889 5888 5887 5886 5885 5884 5883 5882 5881 5880 5879 5879 5878 5878 5877 5876 5876 5875 5875 5874 5874 5873 5872 5872 5874 5875 5876 5878 5879 5880 5881 5882 5883 5884 5885 5886 5887 5887 5888 5889
5892 5891 5890 5889 5888 5887 5886 5885 5884 5883 5882 5881 5880 5880 5879 5878 5878 5877 5876 5876 5875 5874 5874 5873 5872 5869 5869 5872 5874 5876 5877 5879 5879 5881 5882 5883 5884 5884 5885 5886 5887 5888 5888
5893 5892 5891 5890 5889 5888 5887 5886 5885 5883 5882 5881 5880 5880 5879 5878 5877 5876 5876 5875 5875 5874 5873 5873 5871 5868 5868 5872 5874 5876 5877 5878 5879 5880 5881 5882 5883 5883 5884 5886 5886 5887 5887
5893 5892 5891 5890 5889 5888 5887 5886 5885 5884 5882 5881 5880 5879 5879 5878 5877 5876 5875 5874 5874 5873 5873 5873 5872 5871 5871 5873 5875 5876 5877 5878 5879 5880 5881 5882 5883 5883 5884 5885 5885 5886 5887
5893 5892 5891 5890 5889 5888 5887 5886 5885 5884 5882 5881 5880 5879 5878 5877 5876 5875 5874 5874 5873 5873 5872 5872 5872 5872 5873 5874 5874 5876 5876 5877 5878 5879 5880 5881 5882 5883 5883 5884 5885 5885 5886
5893 5892 5891 5890 5889 5888 5887 5886 5885 5883 5882 5881 5880 5879 5878 5876 5875 5875 5874 5873 5872 5872 5871 5872 5872 5872 5873 5873 5874 5875 5876 5877 5878 5879 5880 5880 5881 5882 5883 5883 5884 5884 5885
5893 5892 5891 5890 5889 5888 5887 5885 5884 5883 5882 5881 5879 5878 5877 5876 5875 5874 5872 5871 5870 5871 5871 5871 5871 5871 5872 5873 5874 5875 5875 5876 5877 5878 5879 5879 5880 5881 5882 5882 5883 5883 5884
5893 5892 5891 5890 5888 5887 5886 5885 5884 5883 5881 5880 5879 5877 5876 5875 5874 5872 5870 5867 5867 5868 5869 5870 5870 5871 5871 5872 5874 5874 5874 5875 5876 5877 5878 5879 5879 5880 5881 5881 5881 5882 5882
5893 5892 5890 5889 5888 5887 5886 5885 5883 5882 5881 5880 5878 5877 5875 5874 5873 5871 5867 5864 5865 5867 5868 5869 5869 5870 5871 5871 5872 5873 5873 5874 5875 5876 5877 5877 5878 5878 5879 5880 5880 5880 5880
5893 5891 5890 5888 5887 5886 5885 5884 5883 5882 5880 5879 5877 5876 5874 5873 5872 5870 5868 5865 5866 5867 5867 5868 5868 5869 5870 5870 5871 5871 5872 5873 5874 5875 5875 5876 5876 5877 5878 5878 5879 5879 5879
5893 5891 5889 5888 5887 5886 5885 5883 5882 5881 5880 5878 5877 5875 5873 5872 5871 5870 5869 5867 5867 5867 5867 5867 5867 5868 5869 5869 5870 5870 5871 5872 5872 5873 5873 5873 5874 5875 5876 5877 5877 5877 5877
5892 5891 5890 5888 5887 5886 5884 5883 5882 5881 5879 5878 5876 5875 5873 5871 5871 5870 5869 5867 5867 5867 5866 5866 5867 5867 5867 5867 5868 5869 5870 5870 5871 5871 5872 5872 5873 5874 5875 5875 5875 5875 5876
5892 5890 5889 5888 5887 5885 5884 5883 5881 5880 5879 5877 5876 5874 5873 5871 5870 5869 5868 5867 5866 5866 5866 5865 5865 5866 5866 5866 5867 5867 5868 5868 5869 5870 5871 5871 5871 5872 5873 5873 5873 5873 5874
5891 5890 5888 5887 5886 5885 5883 5882 5881 5879 5878 5876 5875 5874 5872 5871 5870 5868 5867 5866 5865 5865 5864 5864 5864 5864 5864 5865 5865 5866 5866 5867 5868 5868 5869 5869 5870 5870 5871 5871 5871 5871 5871
5890 5889 5888 5886 5885 5884 5883 5881 5880 5878 5876 5875 5874 5873 5871 5870 5869 5868 5866 5865 5865 5864 5863 5863 5863 5863 5863 5864 5864 5865 5865 5865 5866 5867 5867 5868 5868 5868 5869 5869 5868 5869 5869
5888 5887 5886 5885 5884 5883 5881 5880 5879 5877 5875 5874 5873 5871 5870 5869 5868 5867 5865 5865 5864 5863 5863 5862 5862 5862 5862 5862 5863 5863 5864 5864 5865 5865 5865 5866 5866 5867 5867 5867 5867 5867 5867
5886 5886 5885 5884 5883 5882 5881 5879 5878 5876 5875 5873 5872 5871 5869 5868 5867 5866 5864 5864 5863 5862 5861 5861 5861 5861 5861 5861 5861 5862 5862 5862 5863 5863 5863 5864 5864 5865 5865 5865 5864 5864 5864
5884 5884 5884 5883 5882 5881 5879 5878 5877 5875 5874 5873 5871 5870 5868 5867 5866 5865 5863 5862 5862 5861 5860 5859 5859 5859 5859 5859 5859 5860 5860 5860 5861 5861 5861 5862 5862 5862 5863 5863 5862 5861 5861
5883 5882 5882 5881 5880 5879 5878 5877 5876 5874 5873 5872 5870 5869 5867 5866 5864 5863 5862 5861 5860 5860 5859 5858 5857 5857 5857 5857 5858 5858 5858 5858 5858 5859 5859 5859 5859 5860 5860 5860 5860 5859 5859
5880 5880 5880 5879 5879 5878 5877 5875 5874 5873 5871 5870 5869 5867 5866 5864 5863 5862 5861 5860 5859 5858 5857 5856 5856 5856 5856 5855 5856 5856 5857 5857 5856 5857 5857 5857 5857 5857 5858 5858 5857 5857 5856
5878 5878 5878 5878 5877 5876 5875 5874 5872 5871 5870 5869 5867 5866 5864 5863 5861 5860 5859 5858 5857 5856 5855 5854 5854 5853 5854 5854 5854 5854 5854 5855 5855 5855 5854 5855 5855 5855 5855 5855 5855 5854 5854
5876 5876 5876 5875 5875 5874 5873 5872 5871 5869 5868 5866 5865 5863 5862 5860 5859 5858 5857 5856 5855 5854 5853 5852 5852 5851 5852 5851 5852 5851 5852 5852 5852 5853 5853 5852 5852 5853 5852 5852 5852 5851 5851
5873 5873 5873 5873 5872 5871 5870 5869 5868 5867 5865 5864 5862 5861 5859 5858 5857 5856 5855 5854 5853 5852 5851 5850 5850 5850 5849 5849 5849 5848 5849 5849 5849 5850 5850 5850 5850 5850 5850 5850 5849 5849 5848
5870 5870 5870 5870 5869 5868 5867 5866 5865 5864 5862 5861 5860 5858 5857 5856 5855 5853 5852 5851 5851 5850 5849 5848 5847 5847 5847 5846 5846 5846 5846 5846 5847 5847 5847 5847 5847 5847 5846 5846 5846 5845 5845